Year,Month,Day,Hour,Minute,Value (Times are PST for temperature in C)
2016,08,13,00,00,19.20
2016,08,13,00,01,19.10
2016,08,13,00,02,19.10
2016,08,13,00,03,19.10
2016,08,13,00,04,19.10
2016,08,13,00,05,19.10
2016,08,13,00,06,19.10
2016,08,13,00,07,19.10
2016,08,13,00,08,19.00
2016,08,13,00,09,19.00
2016,08,13,00,10,19.00
2016,08,13,00,11,19.00
2016,08,13,00,12,19.00
2016,08,13,00,13,18.90
2016,08,13,00,14,18.90
2016,08,13,00,15,18.90
2016,08,13,00,16,18.90
2016,08,13,00,17,18.90
2016,08,13,00,18,18.90
2016,08,13,00,19,18.90
2016,08,13,00,20,18.90
2016,08,13,00,21,18.90
2016,08,13,00,22,18.90
2016,08,13,00,23,18.80
2016,08,13,00,24,18.80
2016,08,13,00,25,18.80
2016,08,13,00,26,18.80
2016,08,13,00,27,18.80
2016,08,13,00,28,18.80
2016,08,13,00,29,18.80
2016,08,13,00,30,18.80
2016,08,13,00,31,18.80
2016,08,13,00,32,18.80
2016,08,13,00,33,18.70
2016,08,13,00,34,18.70
2016,08,13,00,35,18.70
2016,08,13,00,36,18.70
2016,08,13,00,37,18.70
2016,08,13,00,38,18.70
2016,08,13,00,39,18.60
2016,08,13,00,40,18.60
2016,08,13,00,41,18.60
2016,08,13,00,42,18.60
2016,08,13,00,43,18.60
2016,08,13,00,44,18.60
2016,08,13,00,45,18.50
2016,08,13,00,46,18.50
2016,08,13,00,47,18.50
2016,08,13,00,48,18.50
2016,08,13,00,49,18.40
2016,08,13,00,50,18.40
2016,08,13,00,51,18.40
2016,08,13,00,52,18.40
2016,08,13,00,53,18.40
2016,08,13,00,54,18.40
2016,08,13,00,55,18.40
2016,08,13,00,56,18.40
2016,08,13,00,57,18.40
2016,08,13,00,58,18.30
2016,08,13,00,59,18.30
2016,08,13,01,00,18.30
2016,08,13,01,01,18.30
2016,08,13,01,02,18.30
2016,08,13,01,03,18.30
2016,08,13,01,04,18.30
2016,08,13,01,05,18.30
2016,08,13,01,06,18.30
2016,08,13,01,07,18.30
2016,08,13,01,08,18.30
2016,08,13,01,09,18.30
2016,08,13,01,10,18.30
2016,08,13,01,11,18.30
2016,08,13,01,12,18.30
2016,08,13,01,13,18.30
2016,08,13,01,14,18.20
2016,08,13,01,15,18.20
2016,08,13,01,16,18.20
2016,08,13,01,17,18.20
2016,08,13,01,18,18.20
2016,08,13,01,19,18.20
2016,08,13,01,20,18.20
2016,08,13,01,21,18.20
2016,08,13,01,22,18.20
2016,08,13,01,23,18.20
2016,08,13,01,24,18.10
2016,08,13,01,25,18.10
2016,08,13,01,26,18.10
2016,08,13,01,27,18.10
2016,08,13,01,28,18.10
2016,08,13,01,29,18.10
2016,08,13,01,30,18.10
2016,08,13,01,31,18.10
2016,08,13,01,32,18.10
2016,08,13,01,33,18.10
2016,08,13,01,34,18.10
2016,08,13,01,35,18.10
2016,08,13,01,36,18.10
2016,08,13,01,37,18.10
2016,08,13,01,38,18.00
2016,08,13,01,39,18.00
2016,08,13,01,40,18.00
2016,08,13,01,41,18.00
2016,08,13,01,42,18.00
2016,08,13,01,43,18.00
2016,08,13,01,44,18.00
2016,08,13,01,45,17.90
2016,08,13,01,46,17.90
2016,08,13,01,47,17.90
2016,08,13,01,48,17.90
2016,08,13,01,49,17.90
2016,08,13,01,50,17.90
2016,08,13,01,51,17.90
2016,08,13,01,52,17.80
2016,08,13,01,53,17.80
2016,08,13,01,54,17.80
2016,08,13,01,55,17.80
2016,08,13,01,56,17.80
2016,08,13,01,57,17.80
2016,08,13,01,58,17.80
2016,08,13,01,59,17.70
2016,08,13,02,00,17.70
2016,08,13,02,01,17.70
2016,08,13,02,02,17.70
2016,08,13,02,03,17.70
2016,08,13,02,04,17.70
2016,08,13,02,05,17.70
2016,08,13,02,06,17.70
2016,08,13,02,07,17.70
2016,08,13,02,08,17.70
2016,08,13,02,09,17.70
2016,08,13,02,10,17.60
2016,08,13,02,11,17.60
2016,08,13,02,12,17.60
2016,08,13,02,13,17.60
2016,08,13,02,14,17.60
2016,08,13,02,15,17.60
2016,08,13,02,16,17.60
2016,08,13,02,17,17.60
2016,08,13,02,18,17.60
2016,08,13,02,19,17.60
2016,08,13,02,20,17.60
2016,08,13,02,21,17.60
2016,08,13,02,22,17.60
2016,08,13,02,23,17.60
2016,08,13,02,24,17.60
2016,08,13,02,25,17.60
2016,08,13,02,26,17.60
2016,08,13,02,27,17.60
2016,08,13,02,28,17.60
2016,08,13,02,29,17.60
2016,08,13,02,30,17.60
2016,08,13,02,31,17.60
2016,08,13,02,32,17.60
2016,08,13,02,33,17.60
2016,08,13,02,34,17.60
2016,08,13,02,35,17.60
2016,08,13,02,36,17.60
2016,08,13,02,37,17.60
2016,08,13,02,38,17.60
2016,08,13,02,39,17.60
2016,08,13,02,40,17.60
2016,08,13,02,41,17.60
2016,08,13,02,42,17.60
2016,08,13,02,43,17.60
2016,08,13,02,44,17.60
2016,08,13,02,45,17.60
2016,08,13,02,46,17.50
2016,08,13,02,47,17.50
2016,08,13,02,48,17.50
2016,08,13,02,49,17.50
2016,08,13,02,50,17.40
2016,08,13,02,51,17.40
2016,08,13,02,52,17.40
2016,08,13,02,53,17.40
2016,08,13,02,54,17.40
2016,08,13,02,55,17.40
2016,08,13,02,56,17.40
2016,08,13,02,57,17.40
2016,08,13,02,58,17.40
2016,08,13,02,59,17.40
2016,08,13,03,00,17.40
2016,08,13,03,01,17.40
2016,08,13,03,02,17.40
2016,08,13,03,03,17.40
2016,08,13,03,04,17.40
2016,08,13,03,05,17.40
2016,08,13,03,06,17.40
2016,08,13,03,07,17.40
2016,08,13,03,08,17.40
2016,08,13,03,09,17.40
2016,08,13,03,10,17.40
2016,08,13,03,11,17.40
2016,08,13,03,12,17.40
2016,08,13,03,13,17.40
2016,08,13,03,14,17.40
2016,08,13,03,15,17.40
2016,08,13,03,16,17.40
2016,08,13,03,17,17.40
2016,08,13,03,18,17.40
2016,08,13,03,19,17.40
2016,08,13,03,20,17.40
2016,08,13,03,21,17.50
2016,08,13,03,22,17.50
2016,08,13,03,23,17.50
2016,08,13,03,24,17.50
2016,08,13,03,25,17.50
2016,08,13,03,26,17.50
2016,08,13,03,27,17.50
2016,08,13,03,28,17.50
2016,08,13,03,29,17.50
2016,08,13,03,30,17.50
2016,08,13,03,31,17.50
2016,08,13,03,32,17.50
2016,08,13,03,33,17.50
2016,08,13,03,34,17.50
2016,08,13,03,35,17.50
2016,08,13,03,36,17.50
2016,08,13,03,37,17.50
2016,08,13,03,38,17.50
2016,08,13,03,39,17.50
2016,08,13,03,40,17.50
2016,08,13,03,41,17.50
2016,08,13,03,42,17.50
2016,08,13,03,43,17.50
2016,08,13,03,44,17.50
2016,08,13,03,45,17.50
2016,08,13,03,46,17.40
2016,08,13,03,47,17.40
2016,08,13,03,48,17.40
2016,08,13,03,49,17.40
2016,08,13,03,50,17.40
2016,08,13,03,51,17.40
2016,08,13,03,52,17.40
2016,08,13,03,53,17.40
2016,08,13,03,54,17.40
2016,08,13,03,55,17.40
2016,08,13,03,56,17.40
2016,08,13,03,57,17.40
2016,08,13,03,58,17.40
2016,08,13,03,59,17.40
2016,08,13,04,00,17.40
2016,08,13,04,01,17.40
2016,08,13,04,02,17.40
2016,08,13,04,03,17.40
2016,08,13,04,04,17.40
2016,08,13,04,05,17.40
2016,08,13,04,06,17.40
2016,08,13,04,07,17.40
2016,08,13,04,08,17.40
2016,08,13,04,09,17.40
2016,08,13,04,10,17.40
2016,08,13,04,11,17.40
2016,08,13,04,12,17.40
2016,08,13,04,13,17.40
2016,08,13,04,14,17.40
2016,08,13,04,15,17.40
2016,08,13,04,16,17.30
2016,08,13,04,17,17.30
2016,08,13,04,18,17.30
2016,08,13,04,19,17.30
2016,08,13,04,20,17.30
2016,08,13,04,21,17.30
2016,08,13,04,22,17.30
2016,08,13,04,23,17.30
2016,08,13,04,24,17.30
2016,08,13,04,25,17.30
2016,08,13,04,26,17.30
2016,08,13,04,27,17.30
2016,08,13,04,28,17.30
2016,08,13,04,29,17.30
2016,08,13,04,30,17.30
2016,08,13,04,31,17.30
2016,08,13,04,32,17.20
2016,08,13,04,33,17.20
2016,08,13,04,34,17.20
2016,08,13,04,35,17.20
2016,08,13,04,36,17.20
2016,08,13,04,37,17.20
2016,08,13,04,38,17.20
2016,08,13,04,39,17.20
2016,08,13,04,40,17.20
2016,08,13,04,41,17.20
2016,08,13,04,42,17.20
2016,08,13,04,43,17.20
2016,08,13,04,44,17.20
2016,08,13,04,45,17.20
2016,08,13,04,46,17.20
2016,08,13,04,47,17.20
2016,08,13,04,48,17.20
2016,08,13,04,49,17.10
2016,08,13,04,50,17.10
2016,08,13,04,51,17.10
2016,08,13,04,52,17.10
2016,08,13,04,53,17.10
2016,08,13,04,54,17.10
2016,08,13,04,55,17.10
2016,08,13,04,56,17.10
2016,08,13,04,57,17.10
2016,08,13,04,58,17.10
2016,08,13,04,59,17.10
2016,08,13,05,00,17.00
2016,08,13,05,01,17.00
2016,08,13,05,02,17.00
2016,08,13,05,03,17.00
2016,08,13,05,04,17.00
2016,08,13,05,05,17.00
2016,08,13,05,06,16.90
2016,08,13,05,07,16.90
2016,08,13,05,08,16.90
2016,08,13,05,09,16.90
2016,08,13,05,10,16.90
2016,08,13,05,11,16.90
2016,08,13,05,12,16.80
2016,08,13,05,13,16.80
2016,08,13,05,14,16.80
2016,08,13,05,15,16.80
2016,08,13,05,16,16.80
2016,08,13,05,17,16.80
2016,08,13,05,18,16.80
2016,08,13,05,19,16.80
2016,08,13,05,20,16.80
2016,08,13,05,21,16.80
2016,08,13,05,22,16.80
2016,08,13,05,23,16.80
2016,08,13,05,24,16.80
2016,08,13,05,25,16.70
2016,08,13,05,26,16.70
2016,08,13,05,27,16.70
2016,08,13,05,28,16.70
2016,08,13,05,29,16.70
2016,08,13,05,30,16.70
2016,08,13,05,31,16.70
2016,08,13,05,32,16.70
2016,08,13,05,33,16.70
2016,08,13,05,34,16.60
2016,08,13,05,35,16.60
2016,08,13,05,36,16.60
2016,08,13,05,37,16.60
2016,08,13,05,38,16.60
2016,08,13,05,39,16.60
2016,08,13,05,40,16.50
2016,08,13,05,41,16.50
2016,08,13,05,42,16.50
2016,08,13,05,43,16.50
2016,08,13,05,44,16.40
2016,08,13,05,45,16.40
2016,08,13,05,46,16.40
2016,08,13,05,47,16.40
2016,08,13,05,48,16.40
2016,08,13,05,49,16.40
2016,08,13,05,50,16.40
2016,08,13,05,51,16.30
2016,08,13,05,52,16.30
2016,08,13,05,53,16.30
2016,08,13,05,54,16.30
2016,08,13,05,55,16.30
2016,08,13,05,56,16.30
2016,08,13,05,57,16.30
2016,08,13,05,58,16.30
2016,08,13,05,59,16.30
2016,08,13,06,00,16.30
2016,08,13,06,01,16.30
2016,08,13,06,02,16.20
2016,08,13,06,03,16.20
2016,08,13,06,04,16.20
2016,08,13,06,05,16.20
2016,08,13,06,06,16.20
2016,08,13,06,07,16.20
2016,08,13,06,08,16.20
2016,08,13,06,09,16.10
2016,08,13,06,10,16.10
2016,08,13,06,11,16.10
2016,08,13,06,12,16.10
2016,08,13,06,13,16.10
2016,08,13,06,14,16.10
2016,08,13,06,15,16.10
2016,08,13,06,16,16.10
2016,08,13,06,17,16.10
2016,08,13,06,18,16.10
2016,08,13,06,19,16.00
2016,08,13,06,20,16.00
2016,08,13,06,21,16.00
2016,08,13,06,22,16.00
2016,08,13,06,23,16.00
2016,08,13,06,24,15.90
2016,08,13,06,25,15.90
2016,08,13,06,26,15.90
2016,08,13,06,27,15.90
2016,08,13,06,28,15.90
2016,08,13,06,29,15.90
2016,08,13,06,30,15.90
2016,08,13,06,31,15.90
2016,08,13,06,32,15.90
2016,08,13,06,33,15.90
2016,08,13,06,34,15.80
2016,08,13,06,35,15.80
2016,08,13,06,36,15.80
2016,08,13,06,37,15.80
2016,08,13,06,38,15.80
2016,08,13,06,39,15.80
2016,08,13,06,40,15.80
2016,08,13,06,41,15.80
2016,08,13,06,42,15.80
2016,08,13,06,43,15.80
2016,08,13,06,44,15.80
2016,08,13,06,45,15.80
2016,08,13,06,46,15.70
2016,08,13,06,47,15.70
2016,08,13,06,48,15.70
2016,08,13,06,49,15.70
2016,08,13,06,50,15.70
2016,08,13,06,51,15.70
2016,08,13,06,52,15.70
2016,08,13,06,53,15.70
2016,08,13,06,54,15.70
2016,08,13,06,55,15.70
2016,08,13,06,56,15.70
2016,08,13,06,57,15.70
2016,08,13,06,58,15.70
2016,08,13,06,59,15.70
2016,08,13,07,00,15.70
2016,08,13,07,01,15.70
2016,08,13,07,02,15.70
2016,08,13,07,03,15.70
2016,08,13,07,04,15.70
2016,08,13,07,05,15.70
2016,08,13,07,06,15.70
2016,08,13,07,07,15.70
2016,08,13,07,08,15.70
2016,08,13,07,09,15.70
2016,08,13,07,10,15.70
2016,08,13,07,11,15.70
2016,08,13,07,12,15.70
2016,08,13,07,13,15.70
2016,08,13,07,14,15.70
2016,08,13,07,15,15.70
2016,08,13,07,16,15.70
2016,08,13,07,17,15.70
2016,08,13,07,18,15.70
2016,08,13,07,19,15.70
2016,08,13,07,20,15.70
2016,08,13,07,21,15.70
2016,08,13,07,22,15.70
2016,08,13,07,23,15.70
2016,08,13,07,24,15.70
2016,08,13,07,25,15.70
2016,08,13,07,26,15.70
2016,08,13,07,27,15.70
2016,08,13,07,28,15.70
2016,08,13,07,29,15.70
2016,08,13,07,30,15.80
2016,08,13,07,31,15.80
2016,08,13,07,32,15.80
2016,08,13,07,33,15.80
2016,08,13,07,34,15.80
2016,08,13,07,35,15.80
2016,08,13,07,36,15.80
2016,08,13,07,37,15.80
2016,08,13,07,38,15.80
2016,08,13,07,39,15.80
2016,08,13,07,40,15.80
2016,08,13,07,41,15.80
2016,08,13,07,42,15.90
2016,08,13,07,43,15.90
2016,08,13,07,44,15.90
2016,08,13,07,45,15.90
2016,08,13,07,46,15.90
2016,08,13,07,47,15.90
2016,08,13,07,48,15.90
2016,08,13,07,49,15.90
2016,08,13,07,50,16.00
2016,08,13,07,51,16.00
2016,08,13,07,52,16.00
2016,08,13,07,53,16.00
2016,08,13,07,54,16.00
2016,08,13,07,55,16.10
2016,08,13,07,56,16.10
2016,08,13,07,57,16.10
2016,08,13,07,58,16.10
2016,08,13,07,59,16.10
2016,08,13,08,00,16.10
2016,08,13,08,01,16.20
2016,08,13,08,02,16.20
2016,08,13,08,03,16.20
2016,08,13,08,04,16.20
2016,08,13,08,05,16.20
2016,08,13,08,06,16.20
2016,08,13,08,07,16.30
2016,08,13,08,08,16.30
2016,08,13,08,09,16.30
2016,08,13,08,10,16.30
2016,08,13,08,11,16.40
2016,08,13,08,12,16.40
2016,08,13,08,13,16.40
2016,08,13,08,14,16.40
2016,08,13,08,15,16.50
2016,08,13,08,16,16.50
2016,08,13,08,17,16.50
2016,08,13,08,18,16.60
2016,08,13,08,19,16.60
2016,08,13,08,20,16.60
2016,08,13,08,21,16.60
2016,08,13,08,22,16.70
2016,08,13,08,23,16.70
2016,08,13,08,24,16.70
2016,08,13,08,25,16.70
2016,08,13,08,26,16.80
2016,08,13,08,27,16.80
2016,08,13,08,28,16.80
2016,08,13,08,29,16.80
2016,08,13,08,30,16.90
2016,08,13,08,31,16.90
2016,08,13,08,32,16.90
2016,08,13,08,33,16.90
2016,08,13,08,34,17.00
2016,08,13,08,35,17.00
2016,08,13,08,36,17.00
2016,08,13,08,37,17.10
2016,08,13,08,38,17.10
2016,08,13,08,39,17.10
2016,08,13,08,40,17.20
2016,08,13,08,41,17.20
2016,08,13,08,42,17.20
2016,08,13,08,43,17.20
2016,08,13,08,44,17.30
2016,08,13,08,45,17.30
2016,08,13,08,46,17.30
2016,08,13,08,47,17.30
2016,08,13,08,48,17.40
2016,08,13,08,49,17.40
2016,08,13,08,50,17.40
2016,08,13,08,51,17.50
2016,08,13,08,52,17.50
2016,08,13,08,53,17.60
2016,08,13,08,54,17.60
2016,08,13,08,55,17.70
2016,08,13,08,56,17.80
2016,08,13,08,57,17.80
2016,08,13,08,58,17.90
2016,08,13,08,59,17.90
2016,08,13,09,00,18.00
2016,08,13,09,01,18.10
2016,08,13,09,02,18.10
2016,08,13,09,03,18.20
2016,08,13,09,04,18.20
2016,08,13,09,05,18.30
2016,08,13,09,06,18.30
2016,08,13,09,07,18.40
2016,08,13,09,08,18.40
2016,08,13,09,09,18.50
2016,08,13,09,10,18.60
2016,08,13,09,11,18.60
2016,08,13,09,12,18.70
2016,08,13,09,13,18.80
2016,08,13,09,14,18.80
2016,08,13,09,15,18.90
2016,08,13,09,16,18.90
2016,08,13,09,17,19.00
2016,08,13,09,18,19.10
2016,08,13,09,19,19.20
2016,08,13,09,20,19.30
2016,08,13,09,21,19.40
2016,08,13,09,22,19.50
2016,08,13,09,23,19.60
2016,08,13,09,24,19.60
2016,08,13,09,25,19.70
2016,08,13,09,26,19.80
2016,08,13,09,27,19.80
2016,08,13,09,28,19.90
2016,08,13,09,29,20.00
2016,08,13,09,30,20.00
2016,08,13,09,31,20.10
2016,08,13,09,32,20.20
2016,08,13,09,33,20.20
2016,08,13,09,34,20.30
2016,08,13,09,35,20.30
2016,08,13,09,36,20.30
2016,08,13,09,37,20.40
2016,08,13,09,38,20.40
2016,08,13,09,39,20.50
2016,08,13,09,40,20.50
2016,08,13,09,41,20.60
2016,08,13,09,42,20.60
2016,08,13,09,43,20.70
2016,08,13,09,44,20.70
2016,08,13,09,45,20.80
2016,08,13,09,46,20.80
2016,08,13,09,47,20.80
2016,08,13,09,48,20.90
2016,08,13,09,49,20.90
2016,08,13,09,50,21.00
2016,08,13,09,51,21.00
2016,08,13,09,52,21.10
2016,08,13,09,53,21.10
2016,08,13,09,54,21.10
2016,08,13,09,55,21.20
2016,08,13,09,56,21.20
2016,08,13,09,57,21.20
2016,08,13,09,58,21.30
2016,08,13,09,59,21.30
2016,08,13,10,00,21.30
2016,08,13,10,01,21.30
2016,08,13,10,02,21.40
2016,08,13,10,03,21.40
2016,08,13,10,04,21.50
2016,08,13,10,05,21.50
2016,08,13,10,06,21.60
2016,08,13,10,07,21.60
2016,08,13,10,08,21.70
2016,08,13,10,09,21.70
2016,08,13,10,10,21.80
2016,08,13,10,11,21.80
2016,08,13,10,12,21.80
2016,08,13,10,13,21.90
2016,08,13,10,14,22.00
2016,08,13,10,15,22.00
2016,08,13,10,16,22.10
2016,08,13,10,17,22.10
2016,08,13,10,18,22.10
2016,08,13,10,19,22.20
2016,08,13,10,20,22.20
2016,08,13,10,21,22.20
2016,08,13,10,22,22.20
2016,08,13,10,23,22.30
2016,08,13,10,24,22.30
2016,08,13,10,25,22.30
2016,08,13,10,26,22.30
2016,08,13,10,27,22.30
2016,08,13,10,28,22.40
2016,08,13,10,29,22.40
2016,08,13,10,30,22.40
2016,08,13,10,31,22.50
2016,08,13,10,32,22.50
2016,08,13,10,33,22.60
2016,08,13,10,34,22.60
2016,08,13,10,35,22.60
2016,08,13,10,36,22.70
2016,08,13,10,37,22.70
2016,08,13,10,38,22.80
2016,08,13,10,39,22.80
2016,08,13,10,40,22.90
2016,08,13,10,41,23.00
2016,08,13,10,42,23.00
2016,08,13,10,43,23.10
2016,08,13,10,44,23.10
2016,08,13,10,45,23.10
2016,08,13,10,46,23.20
2016,08,13,10,47,23.20
2016,08,13,10,48,23.20
2016,08,13,10,49,23.30
2016,08,13,10,50,23.30
2016,08,13,10,51,23.30
2016,08,13,10,52,23.40
2016,08,13,10,53,23.40
2016,08,13,10,54,23.40
2016,08,13,10,55,23.40
2016,08,13,10,56,23.40
2016,08,13,10,57,23.40
2016,08,13,10,58,23.40
2016,08,13,10,59,23.50
2016,08,13,11,00,23.50
2016,08,13,11,01,23.50
2016,08,13,11,02,23.50
2016,08,13,11,03,23.50
2016,08,13,11,04,23.60
2016,08,13,11,05,23.60
2016,08,13,11,06,23.50
2016,08,13,11,07,23.60
2016,08,13,11,08,23.60
2016,08,13,11,09,23.60
2016,08,13,11,10,23.60
2016,08,13,11,11,23.60
2016,08,13,11,12,23.60
2016,08,13,11,13,23.60
2016,08,13,11,14,23.60
2016,08,13,11,15,23.60
2016,08,13,11,16,23.70
2016,08,13,11,17,23.70
2016,08,13,11,18,23.80
2016,08,13,11,19,23.80
2016,08,13,11,20,23.80
2016,08,13,11,21,23.90
2016,08,13,11,22,23.90
2016,08,13,11,23,23.90
2016,08,13,11,24,24.00
2016,08,13,11,25,24.00
2016,08,13,11,26,24.00
2016,08,13,11,27,24.10
2016,08,13,11,28,24.10
2016,08,13,11,29,24.10
2016,08,13,11,30,24.10
2016,08,13,11,31,24.20
2016,08,13,11,32,24.20
2016,08,13,11,33,24.20
2016,08,13,11,34,24.20
2016,08,13,11,35,24.20
2016,08,13,11,36,24.30
2016,08,13,11,37,24.30
2016,08,13,11,38,24.30
2016,08,13,11,39,24.40
2016,08,13,11,40,24.40
2016,08,13,11,41,24.50
2016,08,13,11,42,24.50
2016,08,13,11,43,24.60
2016,08,13,11,44,24.60
2016,08,13,11,45,24.70
2016,08,13,11,46,24.70
2016,08,13,11,47,24.70
2016,08,13,11,48,24.80
2016,08,13,11,49,24.80
2016,08,13,11,50,24.90
2016,08,13,11,51,25.00
2016,08,13,11,52,25.10
2016,08,13,11,53,25.10
2016,08,13,11,54,25.20
2016,08,13,11,55,25.20
2016,08,13,11,56,25.20
2016,08,13,11,57,25.30
2016,08,13,11,58,25.30
2016,08,13,11,59,25.30
2016,08,13,12,00,25.30
2016,08,13,12,01,25.30
2016,08,13,12,02,25.40
2016,08,13,12,03,25.40
2016,08,13,12,04,25.50
2016,08,13,12,05,25.50
2016,08,13,12,06,25.60
2016,08,13,12,07,25.70
2016,08,13,12,08,25.80
2016,08,13,12,09,25.90
2016,08,13,12,10,25.90
2016,08,13,12,11,25.90
2016,08,13,12,12,26.00
2016,08,13,12,13,26.10
2016,08,13,12,14,26.20
2016,08,13,12,15,26.20
2016,08,13,12,16,26.30
2016,08,13,12,17,26.40
2016,08,13,12,18,26.50
2016,08,13,12,19,26.50
2016,08,13,12,20,26.60
2016,08,13,12,21,26.60
2016,08,13,12,22,26.70
2016,08,13,12,23,26.70
2016,08,13,12,24,26.70
2016,08,13,12,25,26.80
2016,08,13,12,26,26.80
2016,08,13,12,27,26.90
2016,08,13,12,28,27.00
2016,08,13,12,29,27.10
2016,08,13,12,30,27.10
2016,08,13,12,31,27.20
2016,08,13,12,32,27.20
2016,08,13,12,33,27.20
2016,08,13,12,34,27.20
2016,08,13,12,35,27.20
2016,08,13,12,36,27.20
2016,08,13,12,37,27.20
2016,08,13,12,38,27.20
2016,08,13,12,39,27.30
2016,08,13,12,40,27.30
2016,08,13,12,41,27.40
2016,08,13,12,42,27.40
2016,08,13,12,43,27.50
2016,08,13,12,44,27.50
2016,08,13,12,45,27.50
2016,08,13,12,46,27.60
2016,08,13,12,47,27.60
2016,08,13,12,48,27.60
2016,08,13,12,49,27.50
2016,08,13,12,50,27.50
2016,08,13,12,51,27.50
2016,08,13,12,52,27.50
2016,08,13,12,53,27.50
2016,08,13,12,54,27.50
2016,08,13,12,55,27.50
2016,08,13,12,56,27.50
2016,08,13,12,57,27.50
2016,08,13,12,58,27.50
2016,08,13,12,59,27.50
2016,08,13,13,00,27.50
2016,08,13,13,01,27.50
2016,08,13,13,02,27.60
2016,08,13,13,03,27.60
2016,08,13,13,04,27.50
2016,08,13,13,05,27.50
2016,08,13,13,06,27.60
2016,08,13,13,07,27.60
2016,08,13,13,08,27.50
2016,08,13,13,09,27.50
2016,08,13,13,10,27.50
2016,08,13,13,11,27.50
2016,08,13,13,12,27.50
2016,08,13,13,13,27.50
2016,08,13,13,14,27.50
2016,08,13,13,15,27.60
2016,08,13,13,16,27.60
2016,08,13,13,17,27.60
2016,08,13,13,18,27.60
2016,08,13,13,19,27.60
2016,08,13,13,20,27.60
2016,08,13,13,21,27.70
2016,08,13,13,22,27.70
2016,08,13,13,23,27.70
2016,08,13,13,24,27.70
2016,08,13,13,25,27.70
2016,08,13,13,26,27.70
2016,08,13,13,27,27.70
2016,08,13,13,28,27.80
2016,08,13,13,29,27.80
2016,08,13,13,30,27.80
2016,08,13,13,31,27.90
2016,08,13,13,32,27.90
2016,08,13,13,33,27.90
2016,08,13,13,34,27.90
2016,08,13,13,35,28.00
2016,08,13,13,36,28.00
2016,08,13,13,37,28.00
2016,08,13,13,38,27.90
2016,08,13,13,39,27.90
2016,08,13,13,40,27.90
2016,08,13,13,41,27.90
2016,08,13,13,42,27.80
2016,08,13,13,43,27.80
2016,08,13,13,44,27.80
2016,08,13,13,45,27.80
2016,08,13,13,46,27.80
2016,08,13,13,47,27.70
2016,08,13,13,48,27.70
2016,08,13,13,49,27.70
2016,08,13,13,50,27.70
2016,08,13,13,51,27.70
2016,08,13,13,52,27.70
2016,08,13,13,53,27.80
2016,08,13,13,54,27.80
2016,08,13,13,55,27.80
2016,08,13,13,56,27.80
2016,08,13,13,57,27.80
2016,08,13,13,58,27.80
2016,08,13,13,59,27.90
2016,08,13,14,00,27.90
2016,08,13,14,01,27.90
2016,08,13,14,02,27.90
2016,08,13,14,03,28.00
2016,08,13,14,04,28.00
2016,08,13,14,05,28.10
2016,08,13,14,06,28.10
2016,08,13,14,07,28.10
2016,08,13,14,08,28.10
2016,08,13,14,09,28.10
2016,08,13,14,10,28.10
2016,08,13,14,11,28.10
2016,08,13,14,12,28.10
2016,08,13,14,13,28.10
2016,08,13,14,14,28.10
2016,08,13,14,15,28.20
2016,08,13,14,16,28.20
2016,08,13,14,17,28.20
2016,08,13,14,18,28.20
2016,08,13,14,19,28.20
2016,08,13,14,20,28.20
2016,08,13,14,21,28.30
2016,08,13,14,22,28.30
2016,08,13,14,23,28.30
2016,08,13,14,24,28.30
2016,08,13,14,25,28.30
2016,08,13,14,26,28.40
2016,08,13,14,27,28.40
2016,08,13,14,28,28.40
2016,08,13,14,29,28.50
2016,08,13,14,30,28.50
2016,08,13,14,31,28.60
2016,08,13,14,32,28.60
2016,08,13,14,33,28.70
2016,08,13,14,34,28.70
2016,08,13,14,35,28.80
2016,08,13,14,36,28.90
2016,08,13,14,37,28.90
2016,08,13,14,38,29.00
2016,08,13,14,39,29.00
2016,08,13,14,40,29.10
2016,08,13,14,41,29.10
2016,08,13,14,42,29.20
2016,08,13,14,43,29.30
2016,08,13,14,44,29.30
2016,08,13,14,45,29.40
2016,08,13,14,46,29.40
2016,08,13,14,47,29.40
2016,08,13,14,48,29.40
2016,08,13,14,49,29.50
2016,08,13,14,50,29.50
2016,08,13,14,51,29.60
2016,08,13,14,52,29.70
2016,08,13,14,53,29.80
2016,08,13,14,54,29.80
2016,08,13,14,55,29.90
2016,08,13,14,56,30.00
2016,08,13,14,57,30.10
2016,08,13,14,58,30.20
2016,08,13,14,59,30.20
2016,08,13,15,00,30.30
2016,08,13,15,01,30.30
2016,08,13,15,02,30.30
2016,08,13,15,03,30.40
2016,08,13,15,04,30.40
2016,08,13,15,05,30.50
2016,08,13,15,06,30.50
2016,08,13,15,07,30.50
2016,08,13,15,08,30.60
2016,08,13,15,09,30.60
2016,08,13,15,10,30.60
2016,08,13,15,11,30.80
2016,08,13,15,12,30.80
2016,08,13,15,13,30.90
2016,08,13,15,14,31.00
2016,08,13,15,15,31.00
2016,08,13,15,16,31.10
2016,08,13,15,17,31.10
2016,08,13,15,18,31.10
2016,08,13,15,19,31.10
2016,08,13,15,20,31.10
2016,08,13,15,21,31.10
2016,08,13,15,22,31.20
2016,08,13,15,23,31.20
2016,08,13,15,24,31.20
2016,08,13,15,25,31.20
2016,08,13,15,26,31.20
2016,08,13,15,27,31.20
2016,08,13,15,28,31.20
2016,08,13,15,29,31.20
2016,08,13,15,30,31.20
2016,08,13,15,31,31.20
2016,08,13,15,32,31.30
2016,08,13,15,33,31.30
2016,08,13,15,34,31.30
2016,08,13,15,35,31.30
2016,08,13,15,36,31.30
2016,08,13,15,37,31.30
2016,08,13,15,38,31.30
2016,08,13,15,39,31.30
2016,08,13,15,40,31.30
2016,08,13,15,41,31.30
2016,08,13,15,42,31.30
2016,08,13,15,43,31.40
2016,08,13,15,44,31.40
2016,08,13,15,45,31.40
2016,08,13,15,46,31.40
2016,08,13,15,47,31.40
2016,08,13,15,48,31.50
2016,08,13,15,49,31.50
2016,08,13,15,50,31.60
2016,08,13,15,51,31.60
2016,08,13,15,52,31.60
2016,08,13,15,53,31.60
2016,08,13,15,54,31.60
2016,08,13,15,55,31.60
2016,08,13,15,56,31.60
2016,08,13,15,57,31.60
2016,08,13,15,58,31.50
2016,08,13,15,59,31.50
2016,08,13,16,00,31.50
2016,08,13,16,01,31.40
2016,08,13,16,02,31.40
2016,08,13,16,03,31.30
2016,08,13,16,04,31.30
2016,08,13,16,05,31.30
2016,08,13,16,06,31.30
2016,08,13,16,07,31.30
2016,08,13,16,08,31.30
2016,08,13,16,09,31.30
2016,08,13,16,10,31.30
2016,08,13,16,11,31.30
2016,08,13,16,12,31.30
2016,08,13,16,13,31.30
2016,08,13,16,14,31.30
2016,08,13,16,15,31.30
2016,08,13,16,16,31.30
2016,08,13,16,17,31.30
2016,08,13,16,18,31.20
2016,08,13,16,19,31.20
2016,08,13,16,20,31.20
2016,08,13,16,21,31.20
2016,08,13,16,22,31.20
2016,08,13,16,23,31.20
2016,08,13,16,24,31.20
2016,08,13,16,25,31.20
2016,08,13,16,26,31.10
2016,08,13,16,27,31.10
2016,08,13,16,28,31.00
2016,08,13,16,29,30.90
2016,08,13,16,30,30.90
2016,08,13,16,31,30.80
2016,08,13,16,32,30.80
2016,08,13,16,33,30.70
2016,08,13,16,34,30.70
2016,08,13,16,35,30.70
2016,08,13,16,36,30.70
2016,08,13,16,37,30.70
2016,08,13,16,38,30.70
2016,08,13,16,39,30.70
2016,08,13,16,40,30.60
2016,08,13,16,41,30.60
2016,08,13,16,42,30.50
2016,08,13,16,43,30.40
2016,08,13,16,44,30.40
2016,08,13,16,45,30.30
2016,08,13,16,46,30.20
2016,08,13,16,47,30.20
2016,08,13,16,48,30.10
2016,08,13,16,49,30.00
2016,08,13,16,50,30.00
2016,08,13,16,51,29.90
2016,08,13,16,52,29.80
2016,08,13,16,53,29.80
2016,08,13,16,54,29.70
2016,08,13,16,55,29.60
2016,08,13,16,56,29.60
2016,08,13,16,57,29.50
2016,08,13,16,58,29.40
2016,08,13,16,59,29.40
2016,08,13,17,00,29.40
2016,08,13,17,01,29.40
2016,08,13,17,02,29.30
2016,08,13,17,03,29.30
2016,08,13,17,04,29.20
2016,08,13,17,05,29.20
2016,08,13,17,06,29.20
2016,08,13,17,07,29.10
2016,08,13,17,08,29.10
2016,08,13,17,09,29.10
2016,08,13,17,10,29.00
2016,08,13,17,11,28.90
2016,08,13,17,12,28.80
2016,08,13,17,13,28.70
2016,08,13,17,14,28.70
2016,08,13,17,15,28.70
2016,08,13,17,16,28.60
2016,08,13,17,17,28.60
2016,08,13,17,18,28.60
2016,08,13,17,19,28.60